Zurück zum Katalog

GLOBALSTAR M022

AktivKommunikationLEO
NORAD 25649·PAYLOAD·🇺🇸 United States

Gestartet Mar 15, 1999 von Baikonur Cosmodrome

Loading…

Nächste Überflüge (nächste 24 Stunden)

TLE

AktuellSource: Space-Track

Epoche: Sep 14, 2026, 10:36 UTC

1 25649U 99012A   26257.44216640 -.00000064  00000-0  27697-3 0  9991
2 25649  52.0026 136.0071 0002766   1.6598 169.2571 12.02515869231029

Verfolge GLOBALSTAR M022 in Echtzeit mit AllMySat

Download on the App Store